FW2111 Weather Reports


Display with metric or nautical units.
time (UTC)temp
F
wind
direction
speed
MPH
gust
MPH
rain 1hr
in
rain 24hr
in
rain mn
in
humidity
%
barometer
mb
20260902043941 70 309 3.0 7.0 0.00 0.00 0.00 52 1014.6
20260902043438 70 277 3.0 7.0 0.00 0.00 0.00 53 1014.7
20260902042936 70 299 2.0 8.0 0.00 0.00 0.00 52 1014.8
20260902042406 70 304 2.0 8.0 0.00 0.00 0.00 52 1014.7
20260902041832 70 250 2.0 5.0 0.00 0.00 0.00 53 1014.7
20260902041305 70 339 1.0 6.0 0.00 0.00 0.00 52 1014.6
20260902040802 70 263 2.0 6.0 0.00 0.00 0.00 52 1014.5
20260902040245 70 265 2.0 6.0 0.00 0.00 0.00 52 1014.5
20260902035745 70 276 2.0 6.0 0.00 0.00 0.00 52 1014.4
20260902035242 70 295 2.0 7.0 0.00 0.00 0.00 52 1014.3
20260902034744 70 244 2.0 7.0 0.00 0.00 0.00 52 1014.3
20260902034510 71 262 2.0 7.0 0.00 0.00 0.00 52 1014.4
20260902034010 71 315 3.0 7.0 0.00 0.00 0.00 52 1014.4
20260902033212 71 308 3.0 9.0 0.00 0.00 0.00 52 1014.4
20260902032707 71 264 2.0 7.0 0.00 0.00 0.00 52 1014.3
20260902032204 71 300 2.0 7.0 0.00 0.00 0.00 52 1014.2
20260902031934 71 289 1.0 6.0 0.00 0.00 0.00 53 1014.3
20260902031201 71 263 1.0 6.0 0.00 0.00 0.00 52 1014.4
20260902030632 71 252 1.0 5.0 0.00 0.00 0.00 52 1014.4
20260902030131 71 269 1.0 5.0 0.00 0.00 0.00 53 1014.4
20260902025606 71 227 1.0 4.0 0.00 0.00 0.00 53 1014.3
20260902025038 72 289 1.0 4.0 0.00 0.00 0.00 53 1014.3
20260902024537 72 271 2.0 6.0 0.00 0.00 0.00 53 1014.2
20260902024012 72 263 3.0 9.0 0.00 0.00 0.00 53 1014.2
20260902023737 72 290 2.0 9.0 0.00 0.00 0.00 53 1014.2
20260902023002 72 251 3.0 8.0 0.00 0.00 0.00 53 1014.2
20260902022435 72 253 2.0 7.0 0.00 0.00 0.00 53 1014.3
20260902021911 73 269 3.0 9.0 0.00 0.00 0.00 53 1014.4
20260902021406 72 317 3.0 9.0 0.00 0.00 0.00 53 1014.3
20260902020901 72 221 2.0 7.0 0.00 0.00 0.00 54 1014.4
20260902020402 72 251 2.0 6.0 0.00 0.00 0.00 54 1014.3
20260902015857 72 263 2.0 6.0 0.00 0.00 0.00 54 1014.2
20260902015356 72 232 1.0 3.0 0.00 0.00 0.00 54 1014.2
20260902014856 72 285 1.0 3.0 0.00 0.00 0.00 54 1014.2
20260902014331 72 232 1.0 3.0 0.00 0.00 0.00 54 1014.1
20260902013832 72 254 1.0 3.0 0.00 0.00 0.00 53 1014.2
20260902013312 73 252 1.0 3.0 0.00 0.00 0.00 53 1014.0
20260902013024 73 247 1.0 5.0 0.00 0.00 0.00 52 1014.0
20260902012252 73 247 2.0 5.0 0.00 0.00 0.00 52 1014.0
20260902011750 73 264 2.0 4.0 0.00 0.00 0.00 52 1013.9
20260902011248 73 265 2.0 4.0 0.00 0.00 0.00 51 1013.9
20260902010752 73 267 2.0 4.0 0.00 0.00 0.00 51 1013.8
20260902010503 74 271 2.0 4.0 0.00 0.00 0.00 50 1013.7
20260902005729 74 271 2.0 4.0 0.00 0.00 0.00 50 1013.7
20260902005214 74 280 2.0 4.0 0.00 0.00 0.00 49 1013.6
20260902004646 74 280 3.0 4.0 0.00 0.00 0.00 49 1013.6
20260902004132 74 279 3.0 4.0 0.00 0.00 0.00 48 1013.6
20260902003616 75 279 2.0 4.0 0.00 0.00 0.00 48 1013.6
20260902003114 76 265 1.0 4.0 0.00 0.00 0.00 48 1013.6
20260902002614 76 259 2.0 3.0 0.00 0.00 0.00 47 1013.5
20260902002054 76 258 2.0 4.0 0.00 0.00 0.00 45 1013.5
20260902001553 77 259 2.0 4.0 0.00 0.00 0.00 45 1013.4
20260902001051 77 250 1.0 3.0 0.00 0.00 0.00 44 1013.2
20260902000552 78 250 1.0 4.0 0.00 0.00 0.00 44 1013.1
20260902000025 78 250 1.0 4.0 0.00 0.00 0.00 43 1013.2
20260901235500 78 235 1.0 3.0 0.00 0.00 0.00 42 1013.2
20260901235000 79 235 1.0 4.0 0.00 0.00 0.00 42 1013.3
20260901234731 79 234 2.0 8.0 0.00 0.00 0.00 41 1013.4
20260901233935 79 230 2.0 8.0 0.00 0.00 0.00 40 1013.3
20260901233411 79 241 2.0 5.0 0.00 0.00 0.00 39 1013.2
20260901233136 79 237 2.0 7.0 0.00 0.00 0.00 40 1013.2
20260901232402 80 242 3.0 7.0 0.00 0.00 0.00 39 1013.2
20260901231837 80 220 3.0 8.0 0.00 0.00 0.00 38 1013.2
20260901231309 80 245 3.0 9.0 0.00 0.00 0.00 38 1013.2
20260901230809 80 285 3.0 9.0 0.00 0.00 0.00 38 1013.2
20260901230241 80 225 4.0 9.0 0.00 0.00 0.00 37 1013.1
20260901225713 80 252 5.0 9.0 0.00 0.00 0.00 37 1013.0
20260901225210 81 230 5.0 10.0 0.00 0.00 0.00 37 1013.0
20260901224645 81 218 4.0 10.0 0.00 0.00 0.00 36 1012.9
20260901224120 82 263 3.0 7.0 0.00 0.00 0.00 36 1012.9
20260901223621 82 215 2.0 7.0 0.00 0.00 0.00 36 1012.9
20260901223119 81 281 2.0 7.0 0.00 0.00 0.00 37 1012.9
20260901222619 81 250 2.0 8.0 0.00 0.00 0.00 37 1012.9
20260901222349 80 227 3.0 8.0 0.00 0.00 0.00 37 1013.0
20260901221615 80 235 3.0 10.0 0.00 0.00 0.00 36 1012.9
20260901221047 80 230 4.0 10.0 0.00 0.00 0.00 36 1013.0
20260901220544 80 284 5.0 11.0 0.00 0.00 0.00 35 1012.9
20260901220021 81 256 5.0 11.0 0.00 0.00 0.00 34 1012.8
20260901215505 81 207 4.0 12.0 0.00 0.00 0.00 34 1012.8
20260901215003 81 243 5.0 12.0 0.00 0.00 0.00 33 1012.8
20260901214459 82 217 5.0 14.0 0.00 0.00 0.00 33 1012.8
20260901213957 82 229 6.0 14.0 0.00 0.00 0.00 33 1012.8
20260901213431 82 217 6.0 14.0 0.00 0.00 0.00 33 1012.8
20260901212904 82 291 5.0 11.0 0.00 0.00 0.00 32 1012.8
20260901212359 82 174 5.0 11.0 0.00 0.00 0.00 31 1012.8
20260901211856 83 253 6.0 15.0 0.00 0.00 0.00 31 1012.8
20260901211353 83 340 6.0 21.0 0.00 0.00 0.00 32 1012.9
20260901210825 83 311 6.0 14.0 0.00 0.00 0.00 31 1012.8
20260901210300 83 210 5.0 14.0 0.00 0.00 0.00 30 1012.8
20260901205732 83 211 4.0 11.0 0.00 0.00 0.00 31 1012.8
20260901205228 83 189 3.0 11.0 0.00 0.00 0.00 31 1012.9
20260901204702 82 342 4.0 9.0 0.00 0.00 0.00 31 1012.9
20260901204159 81 241 4.0 14.0 0.00 0.00 0.00 31 1012.9
20260901203906 81 270 4.0 14.0 0.00 0.00 0.00 31 1012.9
20260901203129 82 219 5.0 14.0 0.00 0.00 0.00 30 1012.9
20260901202629 82 300 6.0 14.0 0.00 0.00 0.00 30 1012.9
20260901202059 83 245 5.0 14.0 0.00 0.00 0.00 29 1013.1
20260901201533 83 300 7.0 16.0 0.00 0.00 0.00 29 1013.0
20260901201007 83 256 10.0 20.0 0.00 0.00 0.00 30 1013.0
20260901200439 82 220 9.0 20.0 0.00 0.00 0.00 29 1013.1
20260901200208 83 199 6.0 15.0 0.00 0.00 0.00 29 1013.0
20260901195409 83 266 6.0 15.0 0.00 0.00 0.00 31 1013.1
20260901194907 83 265 8.0 17.0 0.00 0.00 0.00 29 1013.1
20260901194338 83 228 8.0 17.0 0.00 0.00 0.00 29 1013.1
20260901193836 83 220 7.0 16.0 0.00 0.00 0.00 29 1013.1
20260901193338 83 232 6.0 14.0 0.00 0.00 0.00 31 1013.2
20260901192814 83 246 5.0 15.0 0.00 0.00 0.00 30 1013.1
20260901192517 82 288 6.0 15.0 0.00 0.00 0.00 31 1013.2
20260901191743 82 254 7.0 16.0 0.00 0.00 0.00 30 1013.2
20260901191511 83 323 6.0 16.0 0.00 0.00 0.00 29 1013.1
20260901190735 83 279 6.0 17.0 0.00 0.00 0.00 30 1013.2
20260901190233 83 298 8.0 20.0 0.00 0.00 0.00 31 1013.1
20260901185708 82 273 9.0 20.0 0.00 0.00 0.00 33 1013.1
20260901185642 83 181 8.0 18.0 0.00 0.00 0.00 32 1013.2
20260901184616 83 239 6.0 13.0 0.00 0.00 0.00 31 1013.2
20260901184112 82 240 6.0 15.0 0.00 0.00 0.00 34 1013.3
20260901183608 82 271 7.0 15.0 0.00 0.00 0.00 33 1013.4
20260901183041 82 219 7.0 13.0 0.00 0.00 0.00 34 1013.4
20260901182811 82 265 6.0 16.0 0.00 0.00 0.00 34 1013.5
20260901182036 82 299 5.0 16.0 0.00 0.00 0.00 33 1013.6
20260901181534 82 288 6.0 16.0 0.00 0.00 0.00 33 1013.6
20260901181030 81 261 7.0 16.0 0.00 0.00 0.00 32 1013.7
20260901180527 81 286 6.0 21.0 0.00 0.00 0.00 32 1013.6
20260901180024 81 191 7.0 21.0 0.00 0.00 0.00 36 1013.7
20260901175753 81 286 8.0 22.0 0.00 0.00 0.00 33 1013.9
20260901175244 80 288 8.0 22.0 0.00 0.00 0.00 33 1014.0
20260901174516 81 229 8.0 19.0 0.00 0.00 0.00 35 1014.0
20260901174013 81 290 6.0 15.0 0.00 0.00 0.00 35 1014.1
20260901173511 81 261 5.0 14.0 0.00 0.00 0.00 36 1014.1
20260901172945 81 229 5.0 13.0 0.00 0.00 0.00 36 1014.2
20260901172447 80 302 7.0 13.0 0.00 0.00 0.00 36 1014.3
20260901171921 80 284 7.0 16.0 0.00 0.00 0.00 36 1014.3
20260901171357 80 296 6.0 14.0 0.00 0.00 0.00 36 1014.3
20260901170849 80 290 7.0 14.0 0.00 0.00 0.00 37 1014.3
20260901170346 80 211 6.0 15.0 0.00 0.00 0.00 36 1014.2
20260901165827 79 343 6.0 15.0 0.00 0.00 0.00 37 1014.2
20260901165327 79 161 6.0 16.0 0.00 0.00 0.00 38 1014.5
20260901165058 79 283 7.0 16.0 0.00 0.00 0.00 37 1014.6
20260901164324 79 192 7.0 14.0 0.00 0.00 0.00 39 1014.5
20260901163826 79 234 5.0 12.0 0.00 0.00 0.00 40 1014.7
20260901163306 79 312 4.0 12.0 0.00 0.00 0.00 42 1014.7
20260901163038 78 286 4.0 12.0 0.00 0.00 0.00 41 1014.6
20260901162519 78 229 3.0 7.0 0.00 0.00 0.00 42 1014.6
20260901161728 78 285 4.0 11.0 0.00 0.00 0.00 43 1014.6
20260901161213 77 257 6.0 12.0 0.00 0.00 0.00 42 1014.7
20260901160715 77 244 6.0 12.0 0.00 0.00 0.00 41 1014.8
20260901160200 77 293 4.0 11.0 0.00 0.00 0.00 42 1014.8
20260901155639 77 134 4.0 10.0 0.00 0.00 0.00 43 1014.9
20260901155139 77 236 4.0 10.0 0.00 0.00 0.00 43 1014.9
20260901154628 76 175 4.0 13.0 0.00 0.00 0.00 48 1015.0
20260901154103 76 215 4.0 13.0 0.00 0.00 0.00 45 1015.1
20260901153544 74 146 4.0 10.0 0.00 0.00 0.00 51 1015.0
20260901153041 73 186 3.0 8.0 0.00 0.00 0.00 56 1015.1
20260901152541 73 212 4.0 8.0 0.00 0.00 0.00 57 1015.0
20260901152037 74 171 4.0 8.0 0.00 0.00 0.00 57 1014.9
20260901151538 74 163 3.0 6.0 0.00 0.00 0.00 56 1014.9
20260901151016 73 282 2.0 6.0 0.00 0.00 0.00 50 1014.8
20260901150454 72 156 2.0 5.0 0.00 0.00 0.00 58 1014.9
20260901145926 71 163 2.0 6.0 0.00 0.00 0.00 60 1014.9
20260901145408 70 154 5.0 10.0 0.00 0.00 0.00 60 1014.8
20260901144845 69 173 5.0 10.0 0.00 0.00 0.00 60 1014.9
20260901144333 69 209 4.0 10.0 0.00 0.00 0.00 60 1014.9
20260901143836 70 192 5.0 9.0 0.00 0.00 0.00 60 1014.8
20260901143601 69 213 5.0 10.0 0.00 0.00 0.00 61 1014.9
20260901142828 69 210 4.0 10.0 0.00 0.00 0.00 60 1014.8
20260901142331 69 198 4.0 8.0 0.00 0.00 0.00 60 1014.8
20260901142025 69 200 4.0 7.0 0.00 0.00 0.00 60 1014.7
20260901141250 69 179 4.0 9.0 0.00 0.00 0.00 61 1014.6
20260901140724 69 193 4.0 9.0 0.00 0.00 0.00 60 1014.7
20260901140703 70 198 4.0 7.0 0.00 0.00 0.00 60 1014.8
20260901135655 70 184 3.0 7.0 0.00 0.00 0.00 58 1014.9
20260901135153 71 109 2.0 4.0 0.00 0.00 0.00 59 1014.7
20260901134625 70 163 2.0 6.0 0.00 0.00 0.00 59 1014.7
20260901134122 70 168 3.0 6.0 0.00 0.00 0.00 59 1014.7
20260901133620 69 202 3.0 6.0 0.00 0.00 0.00 58 1014.9
20260901133053 69 149 3.0 7.0 0.00 0.00 0.00 58 1014.8
20260901132550 69 182 3.0 7.0 0.00 0.00 0.00 58 1014.8
20260901132253 69 162 3.0 6.0 0.00 0.00 0.00 57 1014.7
20260901131751 69 175 3.0 6.0 0.00 0.00 0.00 57 1014.6
20260901130953 69 169 3.0 5.0 0.00 0.00 0.00 57 1014.7
20260901130450 68 194 3.0 6.0 0.00 0.00 0.00 57 1014.7
20260901125923 68 239 3.0 6.0 0.00 0.00 0.00 56 1014.7
20260901125420 68 196 3.0 5.0 0.00 0.00 0.00 58 1014.6
20260901124916 67 191 3.0 7.0 0.00 0.00 0.00 58 1014.4
20260901124413 67 184 3.0 7.0 0.00 0.00 0.00 58 1014.5
20260901123910 67 185 3.0 6.0 0.00 0.00 0.00 58 1014.4
20260901123406 67 184 2.0 6.0 0.00 0.00 0.00 58 1014.4
20260901123114 68 190 3.0 7.0 0.00 0.00 0.00 57 1014.3
20260901122314 68 208 3.0 10.0 0.00 0.00 0.00 56 1014.2
20260901121812 68 127 2.0 10.0 0.00 0.00 0.00 55 1014.1
20260901121244 68 216 3.0 9.0 0.00 0.00 0.00 56 1014.1
20260901120741 68 277 3.0 9.0 0.00 0.00 0.00 56 1014.0
20260901120234 67 220 3.0 9.0 0.00 0.00 0.00 56 1013.9
20260901115732 67 254 4.0 11.0 0.00 0.00 0.00 56 1013.8
20260901115228 67 302 5.0 11.0 0.00 0.00 0.00 56 1013.7
20260901114725 67 294 4.0 11.0 0.00 0.00 0.00 56 1013.7
20260901114159 68 277 3.0 10.0 0.00 0.00 0.00 56 1013.5
20260901113656 68 301 4.0 13.0 0.00 0.00 0.00 55 1013.4
20260901113130 68 321 6.0 15.0 0.00 0.00 0.00 55 1013.3
20260901112603 68 288 6.0 15.0 0.00 0.00 0.00 55 1013.3
20260901112101 68 355 5.0 14.0 0.00 0.00 0.00 55 1013.2
20260901111534 69 12 6.0 14.0 0.00 0.00 0.00 54 1013.2
20260901111006 69 251 7.0 16.0 0.00 0.00 0.00 54 1013.1
20260901110504 69 261 7.0 16.0 0.00 0.00 0.00 53 1013.0
20260901105938 69 5 6.0 14.0 0.00 0.00 0.00 53 1013.1
20260901105410 70 247 7.0 16.0 0.00 0.00 0.00 52 1013.2
20260901104908 70 59 7.0 16.0 0.00 0.00 0.00 51 1013.1
20260901104410 71 324 6.0 16.0 0.00 0.00 0.00 51 1013.2
20260901104405 71 345 6.0 15.0 0.00 0.00 0.00 51 1013.2
20260901103358 71 322 6.0 16.0 0.00 0.00 0.00 50 1013.2
20260901102856 71 323 6.0 14.0 0.00 0.00 0.00 50 1013.2
20260901102328 71 314 6.0 13.0 0.00 0.00 0.00 50 1013.2
20260901101827 71 323 5.0 12.0 0.00 0.00 0.00 51 1013.1
20260901101300 71 298 5.0 11.0 0.00 0.00 0.00 50 1013.0
20260901101004 71 277 5.0 12.0 0.00 0.00 0.00 50 1012.9
20260901100230 71 311 5.0 12.0 0.00 0.00 0.00 50 1013.0
20260901095706 71 336 5.0 10.0 0.00 0.00 0.00 50 1013.0
20260901095204 71 294 5.0 13.0 0.00 0.00 0.00 51 1013.1
20260901094636 71 305 5.0 13.0 0.00 0.01 0.00 50 1013.0
20260901094134 71 355 4.0 9.0 0.00 0.01 0.00 50 1013.0
20260901093630 71 266 4.0 11.0 0.00 0.05 0.00 49 1013.1
20260901093358 71 286 4.0 8.0 0.00 0.16 0.00 49 1013.0
20260901092600 71 303 4.0 13.0 0.00 0.47 0.00 49 1013.0
20260901092057 71 333 4.0 13.0 0.00 0.69 0.00 49 1013.0
20260901091532 71 267 4.0 12.0 0.00 0.69 0.00 50 1013.1
20260901091004 71 302 4.0 12.0 0.00 0.70 0.00 50 1013.1
20260901090503 71 271 5.0 14.0 0.00 0.70 0.00 50 1013.2
20260901085959 71 263 4.0 14.0 0.00 0.70 0.00 50 1013.1
20260901085458 71 304 3.0 9.0 0.00 0.70 0.00 50 1013.2
20260901084932 71 298 3.0 11.0 0.00 0.70 0.00 50 1013.3
20260901084436 71 272 4.0 11.0 0.00 0.70 0.00 49 1013.2
20260901084152 71 255 4.0 12.0 0.00 0.70 0.00 49 1013.1
20260901083419 72 253 4.0 12.0 0.00 0.70 0.00 48 1013.1
20260901082916 72 248 3.0 10.0 0.00 0.70 0.00 49 1013.1
20260901082418 72 279 3.0 9.0 0.00 0.70 0.00 48 1013.2
20260901081857 72 285 3.0 8.0 0.00 0.70 0.00 48 1013.2
20260901081358 72 271 3.0 7.0 0.00 0.70 0.00 48 1013.2
20260901080831 72 284 3.0 7.0 0.00 0.70 0.00 49 1013.2
20260901080331 72 249 3.0 7.0 0.00 0.70 0.00 50 1013.2
20260901075819 71 284 2.0 10.0 0.00 0.70 0.00 53 1013.3
20260901075813 71 256 2.0 10.0 0.00 0.70 0.00 51 1013.2
20260901074748 70 240 2.0 4.0 0.00 0.70 0.00 55 1013.3
20260901074229 69 191 2.0 8.0 0.00 0.70 0.00 57 1013.4
20260901073710 69 221 2.0 4.0 0.00 0.70 0.00 60 1013.3
20260901073214 70 190 2.0 5.0 0.00 0.70 0.00 60 1013.4
20260901072657 71 190 2.0 5.0 0.00 0.70 0.00 58 1013.5
20260901072428 73 189 2.0 7.0 0.00 0.70 0.00 52 1013.5
20260901071632 73 248 2.0 7.0 0.00 0.70 0.00 52 1013.3
20260901071610 73 209 3.0 11.0 0.00 0.70 0.00 53 1013.4
20260901070551 73 236 4.0 11.0 0.00 0.70 0.00 53 1013.5
20260901070022 73 281 3.0 8.0 0.00 0.70 0.00 53 1013.5
20260901065519 73 275 4.0 10.0 0.00 0.70 0.00 53 1013.4
20260901065253 73 213 4.0 10.0 0.00 0.70 0.00 54 1013.5
20260901064517 73 271 3.0 10.0 0.00 0.70 0.00 54 1013.6
20260901064017 72 257 2.0 9.0 0.00 0.70 0.00 55 1013.5
20260901063456 71 215 3.0 8.0 0.00 0.70 0.00 58 1013.5
20260901062934 70 250 2.0 8.0 0.00 0.70 0.00 61 1013.6
20260901062412 66 261 1.0 7.0 0.00 0.70 0.00 67 1013.6
20260901061846 65 222 0.0 2.0 0.00 0.70 0.00 73 1013.7
20260901061346 65 222 0.0 3.0 0.00 0.70 0.00 73 1013.7
20260901060846 65 222 0.0 3.0 0.00 0.71 0.00 72 1013.7
20260901060320 64 225 0.0 0.0 0.00 0.71 0.00 73 1013.7
20260901060023 64 225 0.0 0.0 0.00 0.71 0.00 73 1013.6
20260901055234 64 225 0.0 0.0 0.00 0.72 0.00 74 1013.6
20260901054732 64 225 0.0 0.0 0.00 0.73 0.00 73 1013.6
20260901054231 65 225 0.0 0.0 0.00 0.76 0.00 73 1013.5
20260901053735 65 225 0.0 0.0 0.00 0.79 0.00 74 1013.4
20260901053232 65 225 0.0 0.0 0.00 0.81 0.00 74 1013.5
20260901052730 66 225 0.0 0.0 0.00 0.84 0.00 74 1013.5
20260901052202 65 225 0.0 0.0 0.00 0.85 0.00 74 1013.5
20260901051701 66 225 0.0 0.0 0.00 0.86 0.00 73 1013.6
20260901051134 66 225 0.0 0.0 0.00 0.87 0.00 74 1013.5
20260901050609 66 225 0.0 0.0 0.00 0.87 0.00 74 1013.6
20260901050043 66 225 0.0 0.0 0.00 0.87 0.00 73 1013.6
20260901045524 66 225 0.0 0.0 0.00 0.87 0.87 73 1013.6
20260901045005 66 225 0.0 0.0 0.00 0.87 0.87 73 1013.5
20260901044737 67 225 0.0 2.0 0.00 0.87 0.87 73 1013.4
20260901044217 67 225 0.0 2.0 0.00 0.87 0.87 73 1013.5